TimeCST,TemperatureF,Dew PointF,Humidity,Sea Level PressureIn,VisibilityMPH,Wind Direction,Wind SpeedMPH,Gust SpeedMPH,PrecipitationIn,Events,Conditions,WindDirDegrees,DateUTC
12:15 AM,17.6,15.8,93,30.29,10.0,WSW,8.1,-,N/A,,Clear,240,2012-02-09 06:15:00
12:35 AM,17.6,14.0,86,30.28,10.0,WSW,6.9,-,N/A,,Clear,240,2012-02-09 06:35:00
12:55 AM,15.8,14.0,93,30.28,10.0,WSW,8.1,-,N/A,,Clear,240,2012-02-09 06:55:00
1:15 AM,15.8,12.2,86,30.27,10.0,SW,5.8,-,N/A,,Clear,220,2012-02-09 07:15:00
1:35 AM,15.8,12.2,86,30.26,10.0,SW,6.9,-,N/A,,Clear,230,2012-02-09 07:35:00
1:55 AM,15.8,12.2,86,30.26,10.0,SW,6.9,-,N/A,,Clear,220,2012-02-09 07:55:00
2:15 AM,15.8,12.2,86,30.25,10.0,SW,5.8,-,N/A,,Clear,220,2012-02-09 08:15:00
2:55 AM,14.0,10.4,86,30.23,10.0,WSW,5.8,-,N/A,,Clear,240,2012-02-09 08:55:00
3:15 AM,12.2,10.4,92,30.23,10.0,SW,4.6,-,N/A,,Clear,230,2012-02-09 09:15:00
3:35 AM,12.2,10.4,92,30.22,10.0,SW,4.6,-,N/A,,Clear,230,2012-02-09 09:35:00
3:55 AM,12.2,10.4,92,30.22,10.0,SW,5.8,-,N/A,,Clear,220,2012-02-09 09:55:00
4:15 AM,12.2,10.4,92,30.21,10.0,SW,3.5,-,N/A,,Clear,220,2012-02-09 10:15:00
4:35 AM,12.2,10.4,92,30.20,10.0,South,4.6,-,N/A,,Clear,190,2012-02-09 10:35:00
4:55 AM,12.2,10.4,92,30.20,10.0,SSW,5.8,-,N/A,,Clear,200,2012-02-09 10:55:00
5:15 AM,12.2,10.4,92,30.20,10.0,SSW,6.9,-,N/A,,Clear,210,2012-02-09 11:15:00
5:35 AM,12.2,8.6,85,30.20,7.0,SSW,5.8,-,N/A,,Clear,210,2012-02-09 11:35:00
5:55 AM,10.4,8.6,92,30.20,7.0,SSW,5.8,-,N/A,,Clear,200,2012-02-09 11:55:00
6:15 AM,10.4,8.6,92,30.19,10.0,SSW,6.9,-,N/A,,Clear,210,2012-02-09 12:15:00
6:35 AM,10.4,8.6,92,30.18,10.0,SSW,8.1,-,N/A,,Clear,200,2012-02-09 12:35:00
6:55 AM,10.4,8.6,92,30.18,10.0,SSW,8.1,-,N/A,,Clear,200,2012-02-09 12:55:00
7:15 AM,12.2,10.4,92,30.19,10.0,SSW,6.9,-,N/A,,Mostly Cloudy,200,2012-02-09 13:15:00
7:35 AM,10.4,8.6,92,30.18,7.0,South,5.8,-,N/A,,Scattered Clouds,190,2012-02-09 13:35:00
7:55 AM,12.2,10.4,92,30.17,7.0,South,8.1,-,N/A,,Clear,190,2012-02-09 13:55:00
8:15 AM,14.0,10.4,86,30.17,7.0,South,6.9,-,N/A,,Clear,190,2012-02-09 14:15:00
8:35 AM,15.8,14.0,93,30.16,10.0,South,6.9,-,N/A,,Clear,190,2012-02-09 14:35:00
8:55 AM,19.4,15.8,86,30.16,10.0,SSW,8.1,-,N/A,,Clear,200,2012-02-09 14:55:00
9:15 AM,21.2,17.6,86,30.15,10.0,SSW,10.4,-,N/A,,Clear,200,2012-02-09 15:15:00
9:35 AM,21.2,19.4,93,30.15,10.0,South,11.5,-,N/A,,Clear,190,2012-02-09 15:35:00
9:55 AM,24.8,21.2,86,30.14,10.0,SSW,12.7,-,N/A,,Clear,200,2012-02-09 15:55:00
10:35 AM,26.6,23.0,86,30.13,10.0,SW,13.8,21.9,N/A,,Clear,220,2012-02-09 16:35:00
10:55 AM,28.4,24.8,86,30.12,10.0,SW,15.0,20.7,N/A,,Scattered Clouds,220,2012-02-09 16:55:00
11:15 AM,30.2,24.8,80,30.11,10.0,SW,17.3,-,N/A,,Scattered Clouds,220,2012-02-09 17:15:00
11:35 AM,30.2,24.8,80,30.11,10.0,WSW,16.1,-,N/A,,Mostly Cloudy,240,2012-02-09 17:35:00
11:55 AM,32.0,24.8,75,30.09,10.0,SW,15.0,-,N/A,,Scattered Clouds,230,2012-02-09 17:55:00
12:15 PM,33.8,24.8,70,30.07,10.0,SW,15.0,-,N/A,,Mostly Cloudy,230,2012-02-09 18:15:00
12:35 PM,35.6,24.8,65,30.06,10.0,SW,18.4,25.3,N/A,,Scattered Clouds,220,2012-02-09 18:35:00
12:55 PM,35.6,24.8,65,30.05,10.0,SW,17.3,21.9,N/A,,Scattered Clouds,230,2012-02-09 18:55:00
1:15 PM,37.4,24.8,60,30.03,10.0,SW,19.6,24.2,N/A,,Scattered Clouds,230,2012-02-09 19:15:00
1:35 PM,35.6,24.8,65,30.02,10.0,SW,17.3,-,N/A,,Scattered Clouds,230,2012-02-09 19:35:00
1:55 PM,35.6,24.8,65,30.01,10.0,SW,15.0,-,N/A,,Scattered Clouds,230,2012-02-09 19:55:00
2:15 PM,37.4,24.8,60,30.00,10.0,SW,18.4,23.0,N/A,,Scattered Clouds,220,2012-02-09 20:15:00
2:35 PM,37.4,26.6,65,30.00,10.0,SSW,15.0,20.7,N/A,,Scattered Clouds,210,2012-02-09 20:35:00
2:55 PM,37.4,24.8,60,29.99,10.0,SW,19.6,23.0,N/A,,Scattered Clouds,220,2012-02-09 20:55:00
3:15 PM,37.4,24.8,60,29.98,10.0,SSW,19.6,28.8,N/A,,Scattered Clouds,210,2012-02-09 21:15:00
3:35 PM,37.4,26.6,65,29.99,10.0,SSW,20.7,27.6,N/A,,Mostly Cloudy,210,2012-02-09 21:35:00
3:55 PM,35.6,24.8,65,29.98,10.0,SW,19.6,27.6,N/A,,Mostly Cloudy,220,2012-02-09 21:55:00
4:15 PM,35.6,26.6,70,29.98,10.0,SSW,19.6,26.5,N/A,,Overcast,210,2012-02-09 22:15:00
4:35 PM,33.8,26.6,75,29.98,10.0,SSW,18.4,21.9,N/A,,Overcast,210,2012-02-09 22:35:00
4:55 PM,33.8,26.6,75,29.98,10.0,SW,17.3,20.7,N/A,,Overcast,220,2012-02-09 22:55:00
5:15 PM,33.8,26.6,75,29.98,10.0,SW,16.1,-,N/A,,Overcast,230,2012-02-09 23:15:00
5:35 PM,33.8,26.6,75,29.98,7.0,SW,17.3,24.2,N/A,,Overcast,230,2012-02-09 23:35:00
5:55 PM,33.8,26.6,75,29.97,10.0,SW,15.0,24.2,N/A,,Overcast,220,2012-02-09 23:55:00
6:15 PM,33.8,26.6,75,29.97,10.0,SW,15.0,-,N/A,,Mostly Cloudy,220,2012-02-10 00:15:00
6:35 PM,33.8,26.6,75,29.97,10.0,SW,11.5,-,N/A,,Mostly Cloudy,220,2012-02-10 00:35:00
6:55 PM,30.2,26.6,86,29.98,7.0,SSW,8.1,-,N/A,,Mostly Cloudy,210,2012-02-10 00:55:00
7:15 PM,30.2,26.6,86,29.97,7.0,SSW,10.4,-,N/A,,Mostly Cloudy,210,2012-02-10 01:15:00
7:35 PM,32.0,26.6,80,29.97,7.0,SW,16.1,19.6,N/A,,Scattered Clouds,220,2012-02-10 01:35:00
7:55 PM,30.2,26.6,86,29.98,7.0,SW,12.7,-,N/A,,Clear,230,2012-02-10 01:55:00
8:15 PM,30.2,26.6,86,29.97,7.0,SW,15.0,-,N/A,,Clear,220,2012-02-10 02:15:00
8:35 PM,30.2,26.6,86,29.97,7.0,SSW,12.7,-,N/A,,Clear,210,2012-02-10 02:35:00
8:55 PM,28.4,26.6,93,29.97,7.0,SW,11.5,-,N/A,,Clear,220,2012-02-10 02:55:00
9:15 PM,28.4,26.6,93,29.97,7.0,SW,11.5,-,N/A,,Clear,230,2012-02-10 03:15:00
9:35 PM,28.4,26.6,93,29.97,5.0,SW,11.5,-,N/A,,Clear,230,2012-02-10 03:35:00
9:55 PM,26.6,26.6,100,29.97,5.0,SW,11.5,-,N/A,,Clear,230,2012-02-10 03:55:00
10:15 PM,26.6,26.6,100,29.97,5.0,WSW,9.2,-,N/A,,Clear,240,2012-02-10 04:15:00
10:35 PM,26.6,26.6,100,29.98,5.0,WSW,11.5,-,N/A,,Clear,250,2012-02-10 04:35:00
11:15 PM,26.6,24.8,93,29.99,5.0,West,11.5,-,N/A,,Clear,280,2012-02-10 05:15:00
11:35 PM,26.6,24.8,93,29.98,7.0,NW,11.5,-,N/A,,Clear,310,2012-02-10 05:35:00
11:55 PM,26.6,21.2,80,30.00,10.0,NW,18.4,25.3,N/A,,Clear,320,2012-02-10 05:55:00